DW0479 Weather Reports


time (UTC)temp
C
wind
direction
speed
KPH
gust
KPH
rain 1hr
cm
rain 24hr
cm
rain mn
cm
humidity
%
barometer
mb
20260506104829 16 106 0.0 0.0 0.00 0.00 0.00 92 1016.1
20260506103830 16 106 0.0 0.0 0.00 0.00 0.00 92 1015.9
20260506102820 16 106 0.0 0.0 0.00 0.00 0.00 91 1016.0
20260506101818 16 105 0.0 0.0 0.00 0.00 0.00 91 1015.9
20260506100819 16 106 0.0 0.0 0.00 0.00 0.00 92 1015.9
20260506095818 16 105 0.0 0.0 0.00 0.00 0.00 92 1015.8
20260506094819 16 105 0.0 0.0 0.00 0.00 0.00 91 1015.8
20260506093818 16 106 0.0 0.0 0.00 0.00 0.00 91 1015.8
20260506092816 16 105 0.0 0.0 0.00 0.00 0.00 92 1015.6
20260506092252 16 106 0.0 0.0 0.00 0.00 0.00 92 1015.7
20260506090815 16 105 0.0 0.0 0.00 0.00 0.00 92 1015.5
20260506085817 16 106 0.0 0.0 0.00 0.00 0.00 91 1015.5
20260506084815 16 105 0.0 0.0 0.00 0.00 0.00 91 1015.6
20260506083813 16 106 0.0 0.0 0.00 0.00 0.00 91 1015.6
20260506082816 16 106 0.0 0.0 0.00 0.00 0.00 90 1015.7
20260506081813 16 105 0.0 0.0 0.00 0.00 0.00 91 1015.7
20260506080814 16 105 0.0 0.0 0.00 0.00 0.00 91 1015.6
20260506072805 16 105 0.0 0.0 0.00 0.00 0.00 91 1015.8
20260506071805 16 106 0.0 0.0 0.00 0.00 0.00 91 1015.8
20260506071237 16 106 0.0 0.0 0.00 0.00 0.00 90 1015.8
20260506061749 16 105 0.0 0.0 0.00 0.00 0.00 88 1016.2
20260506061704 17 105 0.0 0.0 0.00 0.00 0.00 88 1016.3
20260506050744 17 105 0.0 0.0 0.00 0.00 0.00 87 1016.7
20260506044745 18 105 0.0 0.0 0.00 0.00 0.00 85 1016.7
20260506043742 18 106 0.0 0.0 0.00 0.00 0.00 85 1016.7
20260506042742 18 105 0.0 1.6 0.00 0.00 0.00 85 1016.6
20260506041743 18 106 0.0 0.0 0.00 0.00 0.00 84 1016.5
20260506040744 19 106 0.0 0.0 0.00 0.00 0.00 82 1016.6
20260506040712 19 106 0.0 0.0 0.00 0.00 0.00 81 1016.6
20260506034728 19 106 0.0 1.6 0.00 0.00 0.00 81 1016.7
20260506034206 20 106 0.0 1.6 0.00 0.00 0.00 81 1016.7
20260506032729 20 105 0.0 3.2 0.00 0.00 0.00 81 1016.7
20260506032207 20 106 0.0 0.0 0.00 0.00 0.00 80 1016.8
20260506031210 20 105 0.0 1.6 0.00 0.00 0.00 80 1016.7
20260506030208 20 106 0.0 0.0 0.00 0.00 0.00 79 1016.7
20260506024723 20 106 0.0 0.0 0.00 0.00 0.00 77 1016.7
20260506023722 21 106 0.0 3.2 0.00 0.00 0.00 75 1016.7
20260506022719 21 105 1.6 4.8 0.00 0.00 0.00 74 1016.5
20260506022157 21 106 1.6 4.8 0.00 0.00 0.00 74 1016.4
20260506020723 21 106 1.6 4.8 0.00 0.00 0.00 73 1016.2
20260506015717 21 102 1.6 3.2 0.00 0.00 0.00 73 1016.2
20260506014716 22 102 1.6 4.8 0.00 0.00 0.00 71 1016.0
20260506013720 22 102 1.6 4.8 0.00 0.00 0.00 69 1015.9
20260506012713 23 92 4.8 11.3 0.00 0.00 0.00 68 1015.8
20260506011711 23 93 3.2 9.7 0.00 0.00 0.00 67 1015.7
20260506010711 23 106 4.8 12.9 0.00 0.00 0.00 66 1015.6
20260506005711 23 119 4.8 11.3 0.00 0.00 0.00 65 1015.5
20260506005151 24 123 4.8 14.5 0.00 0.00 0.00 63 1015.2
20260506003709 24 103 6.4 19.3 0.00 0.00 0.00 62 1015.1
20260506003207 25 73 8.0 17.7 0.00 0.00 0.00 61 1015.1
20260506001705 25 121 4.8 14.5 0.00 0.00 0.00 60 1015.0
20260506001140 25 117 8.0 20.9 0.00 0.00 0.00 60 1015.1
20260505235705 25 96 9.7 22.5 0.00 0.00 0.00 60 1014.8
20260505234704 25 127 6.4 12.9 0.00 0.00 0.00 60 1014.7
20260505233707 26 105 6.4 20.9 0.00 0.00 0.00 59 1014.7
20260505232701 26 119 6.4 16.1 0.00 0.00 0.00 58 1014.7
20260505231658 26 117 11.3 25.7 0.00 0.00 0.00 57 1014.8
20260505230700 26 155 12.9 25.7 0.00 0.00 0.00 57 1014.7
20260505230147 27 96 9.7 22.5 0.00 0.00 0.00 57 1014.6
20260505224700 27 132 11.3 20.9 0.00 0.00 0.00 56 1014.6
20260505223652 28 101 11.3 20.9 0.00 0.00 0.00 55 1014.6
20260505222654 28 109 9.7 19.3 0.00 0.00 0.00 53 1014.4
20260505221653 29 86 8.0 19.3 0.00 0.00 0.00 53 1014.5
20260505220654 29 100 9.7 20.9 0.00 0.00 0.00 52 1014.3
20260505215654 30 125 6.4 17.7 0.00 0.00 0.00 51 1014.3
20260505214640 29 106 8.0 20.9 0.00 0.00 0.00 51 1014.3
20260505213639 30 59 8.0 16.1 0.00 0.00 0.00 51 1014.2
20260505212640 30 90 8.0 20.9 0.00 0.00 0.00 51 1014.2
20260505211639 30 133 8.0 20.9 0.00 0.00 0.00 51 1014.3
20260505210641 30 59 4.8 14.5 0.00 0.00 0.00 50 1014.2
20260505205633 29 131 6.4 14.5 0.00 0.00 0.00 51 1014.2
20260505205113 29 155 6.4 16.1 0.00 0.00 0.00 50 1014.2
20260505203632 30 113 6.4 14.5 0.00 0.00 0.00 50 1014.3
20260505203548 29 137 9.7 19.3 0.00 0.00 0.00 52 1014.3
20260505201618 29 150 11.3 29.0 0.00 0.00 0.00 52 1014.3
20260505200617 29 106 8.0 22.5 0.00 0.00 0.00 51 1014.4
20260505195618 30 106 6.4 12.9 0.00 0.00 0.00 45 1014.5
20260505194619 31 51 4.8 12.9 0.00 0.00 0.00 48 1014.5
20260505193619 30 119 8.0 19.3 0.00 0.00 0.00 49 1014.7
20260505192615 30 19 8.0 17.7 0.00 0.00 0.00 48 1014.8
20260505192055 30 146 9.7 19.3 0.00 0.00 0.00 50 1014.9
20260505190617 30 117 8.0 20.9 0.00 0.00 0.00 49 1015.0
20260505185614 30 79 4.8 14.5 0.00 0.00 0.00 52 1015.1
20260505184613 28 117 4.8 12.9 0.00 0.00 0.00 52 1015.2
20260505183614 28 61 4.8 12.9 0.00 0.00 0.00 53 1015.3
20260505182615 28 79 6.4 14.5 0.00 0.00 0.00 53 1015.4
20260505181615 28 84 4.8 16.1 0.00 0.00 0.00 52 1015.6
20260505180614 28 98 4.8 16.1 0.00 0.00 0.00 53 1015.7
20260505175615 29 59 6.4 14.5 0.00 0.00 0.00 52 1015.7
20260505174613 29 31 8.0 19.3 0.00 0.00 0.00 51 1015.9
20260505174050 30 67 6.4 14.5 0.00 0.00 0.00 51 1015.8
20260505172616 30 92 8.0 16.1 0.00 0.00 0.00 50 1016.0
20260505171613 30 29 6.4 14.5 0.00 0.00 0.00 53 1016.0
20260505170614 28 96 6.4 16.1 0.00 0.00 0.00 51 1016.1
20260505165615 29 115 9.7 20.9 0.00 0.00 0.00 51 1016.2
20260505164613 28 95 6.4 17.7 0.00 0.00 0.00 54 1016.2
20260505163613 29 74 6.4 19.3 0.00 0.00 0.00 52 1016.2
20260505162616 29 89 6.4 16.1 0.00 0.00 0.00 53 1016.2
20260505161604 28 182 8.0 17.7 0.00 0.00 0.00 52 1016.2
20260505160605 29 88 8.0 16.1 0.00 0.00 0.00 55 1016.2
20260505152602 28 154 8.0 22.5 0.00 0.00 0.00 54 1016.3
20260505152043 27 105 8.0 19.3 0.00 0.00 0.00 59 1016.4
20260505151047 27 120 11.3 22.5 0.00 0.00 0.00 57 1016.4
20260505140549 26 94 9.7 19.3 0.00 0.00 0.00 67 1015.9
20260505125010 22 124 6.4 12.9 0.00 0.00 0.00 79 1016.0
20260505124022 22 96 3.2 11.3 0.00 0.00 0.00 80 1016.1
20260505122538 22 96 3.2 9.7 0.00 0.00 0.00 84 1016.1
20260505122014 21 95 1.6 8.0 0.00 0.00 0.00 88 1016.1
20260505120534 20 35 1.6 6.4 0.00 0.00 0.00 91 1016.0
20260505115533 19 287 0.0 3.2 0.00 0.00 0.00 93 1015.8
20260505114530 18 287 0.0 0.0 0.00 0.00 0.00 93 1015.9
20260505113532 17 286 0.0 0.0 0.00 0.00 0.00 94 1015.6
20260505112528 17 286 0.0 0.0 0.00 0.00 0.00 94 1015.5
20260505111527 17 286 0.0 0.0 0.00 0.00 0.00 94 1015.2
20260505110530 17 48 0.0 1.6 0.00 0.00 0.00 93 1015.3